Time,TemperatureF,DewpointF,PressureIn,WindDirection,WindDirectionDegrees,WindSpeedMPH,WindSpeedGustMPH,Humidity,HourlyPrecipIn,Conditions,Clouds,dailyrainin,SoftwareType,DateUTC
2013-03-10 00:00:00,32.5,24.8,30.21,North,0,0.0,0.0,73,0.00,CLR,CLR,0.00,WeatherDisplay:10.37,2013-03-10 05:00:00,
2013-03-10 00:01:00,32.4,24.7,30.21,North,0,0.0,0.0,73,0.00,CLR,CLR,0.00,WeatherDisplay:10.37,2013-03-10 05:01:00,
2013-03-10 00:06:00,31.8,24.1,30.21,North,0,0.0,0.0,73,0.00,CLR,CLR,0.00,WeatherDisplay:10.37,2013-03-10 05:06:00,
2013-03-10 00:11:00,31.8,24.5,30.21,North,0,0.0,0.0,74,0.00,CLR,CLR,0.00,WeatherDisplay:10.37,2013-03-10 05:11:00,
2013-03-10 00:16:00,32.2,25.1,30.21,North,0,0.0,0.0,75,0.00,CLR,CLR,0.00,WeatherDisplay:10.37,2013-03-10 05:16:00,
2013-03-10 00:22:00,32.2,25.1,30.21,North,0,0.0,0.0,75,0.00,CLR,CLR,0.00,WeatherDisplay:10.37,2013-03-10 05:22:00,
2013-03-10 00:27:00,31.3,24.0,30.21,North,0,0.0,0.0,74,0.00,CLR,CLR,0.00,WeatherDisplay:10.37,2013-03-10 05:27:00,
2013-03-10 00:32:00,31.1,23.8,30.21,North,0,0.0,0.0,74,0.00,CLR,CLR,0.00,WeatherDisplay:10.37,2013-03-10 05:32:00,
2013-03-10 00:37:00,31.1,23.8,30.21,North,0,0.0,0.0,74,0.00,CLR,CLR,0.00,WeatherDisplay:10.37,2013-03-10 05:37:00,
2013-03-10 00:42:00,31.1,23.8,30.21,North,0,0.0,0.0,74,0.00,CLR,CLR,0.00,WeatherDisplay:10.37,2013-03-10 05:42:00,
2013-03-10 00:47:00,31.3,24.6,30.21,North,0,0.0,0.0,76,0.00,CLR,CLR,0.00,WeatherDisplay:10.37,2013-03-10 05:47:00,
2013-03-10 00:52:00,31.1,24.4,30.21,North,0,0.0,0.0,76,0.00,CLR,CLR,0.00,WeatherDisplay:10.37,2013-03-10 05:52:00,
2013-03-10 00:57:00,31.1,24.1,30.21,North,0,0.0,0.0,75,0.00,CLR,CLR,0.00,WeatherDisplay:10.37,2013-03-10 05:57:00,
2013-03-10 01:02:00,31.2,31.2,30.21,North,0,0.0,0.0,100,0.00,CLR,CLR,0.00,WeatherDisplay:10.37,2013-03-10 06:02:00,
2013-03-10 01:07:00,31.8,25.7,30.21,North,0,0.0,0.0,78,0.00,CLR,CLR,0.00,WeatherDisplay:10.37,2013-03-10 06:07:00,
2013-03-10 01:13:00,31.8,26.4,30.21,North,0,0.0,0.0,80,0.00,CLR,CLR,0.00,WeatherDisplay:10.37,2013-03-10 06:13:00,
2013-03-10 01:18:00,30.7,25.9,30.21,North,0,0.0,0.0,82,0.00,CLR,CLR,0.00,WeatherDisplay:10.37,2013-03-10 06:18:00,
2013-03-10 01:23:00,30.7,26.2,30.21,North,0,0.0,0.0,83,0.00,CLR,CLR,0.00,WeatherDisplay:10.37,2013-03-10 06:23:00,
2013-03-10 01:28:00,30.7,27.3,30.21,North,0,0.0,0.0,87,0.00,CLR,CLR,0.00,WeatherDisplay:10.37,2013-03-10 06:28:00,
2013-03-10 01:33:00,30.7,27.0,30.21,North,0,0.0,0.0,86,0.00,CLR,CLR,0.00,WeatherDisplay:10.37,2013-03-10 06:33:00,
2013-03-10 01:38:00,30.2,25.9,30.21,North,0,0.0,0.0,84,0.00,CLR,CLR,0.00,WeatherDisplay:10.37,2013-03-10 06:38:00,
2013-03-10 01:44:00,30.7,25.6,30.21,North,0,0.0,0.0,81,0.00,CLR,CLR,0.00,WeatherDisplay:10.37,2013-03-10 06:44:00,
2013-03-10 01:49:00,30.7,25.3,30.18,North,0,0.0,0.0,80,0.00,CLR,CLR,0.00,WeatherDisplay:10.37,2013-03-10 06:49:00,
2013-03-10 01:54:00,30.2,24.5,30.18,North,0,0.0,0.0,79,0.00,CLR,CLR,0.00,WeatherDisplay:10.37,2013-03-10 06:54:00,
2013-03-10 01:59:00,30.6,24.8,30.18,North,0,0.0,0.0,79,0.00,CLR,CLR,0.00,WeatherDisplay:10.37,2013-03-10 06:59:00,
2013-03-10 03:04:00,30.6,24.5,30.21,North,0,0.0,0.0,78,0.00,CLR,CLR,0.00,WeatherDisplay:10.37,2013-03-10 07:04:00,
2013-03-10 03:09:00,30.6,24.5,30.21,North,0,0.0,0.0,78,0.00,CLR,CLR,0.00,WeatherDisplay:10.37,2013-03-10 07:09:00,
2013-03-10 03:14:00,30.7,24.7,30.21,North,0,0.0,0.0,78,0.00,CLR,CLR,0.00,WeatherDisplay:10.37,2013-03-10 07:14:00,
2013-03-10 03:19:00,30.7,24.4,30.18,North,0,0.0,0.0,77,0.00,CLR,CLR,0.00,WeatherDisplay:10.37,2013-03-10 07:19:00,
2013-03-10 03:24:00,30.9,24.6,30.18,North,0,0.0,0.0,77,0.00,CLR,CLR,0.00,WeatherDisplay:10.37,2013-03-10 07:24:00,
2013-03-10 03:30:00,31.1,24.7,30.18,North,0,0.0,0.0,77,0.00,CLR,CLR,0.00,WeatherDisplay:10.37,2013-03-10 07:30:00,
2013-03-10 03:35:00,31.3,24.9,30.18,North,0,0.0,0.0,77,0.00,CLR,CLR,0.00,WeatherDisplay:10.37,2013-03-10 07:35:00,
2013-03-10 03:40:00,31.3,24.9,30.18,North,0,0.0,0.0,77,0.00,CLR,CLR,0.00,WeatherDisplay:10.37,2013-03-10 07:40:00,
2013-03-10 03:45:00,30.9,24.6,30.18,North,0,0.0,0.0,77,0.00,CLR,CLR,0.00,WeatherDisplay:10.37,2013-03-10 07:45:00,
2013-03-10 03:50:00,30.6,24.2,30.18,North,0,0.0,0.0,77,0.00,CLR,CLR,0.00,WeatherDisplay:10.37,2013-03-10 07:50:00,
2013-03-10 03:55:00,30.7,24.4,30.18,North,0,0.0,0.0,77,0.00,CLR,CLR,0.00,WeatherDisplay:10.37,2013-03-10 07:55:00,
2013-03-10 04:00:00,31.1,25.0,30.18,North,0,0.0,0.0,78,0.00,CLR,CLR,0.00,WeatherDisplay:10.37,2013-03-10 08:00:00,
2013-03-10 04:05:00,31.1,25.0,30.18,North,0,0.0,0.0,78,0.00,CLR,CLR,0.00,WeatherDisplay:10.37,2013-03-10 08:05:00,
2013-03-10 04:10:00,30.4,24.3,30.18,North,0,0.0,0.0,78,0.00,CLR,CLR,0.00,WeatherDisplay:10.37,2013-03-10 08:10:00,
2013-03-10 04:15:00,29.8,23.8,30.18,North,0,0.0,0.0,78,0.00,CLR,CLR,0.00,WeatherDisplay:10.37,2013-03-10 08:15:00,
2013-03-10 04:20:00,29.8,23.8,30.18,North,0,0.0,0.0,78,0.00,CLR,CLR,0.00,WeatherDisplay:10.37,2013-03-10 08:20:00,
2013-03-10 04:26:00,30.2,24.2,30.18,North,0,0.0,0.0,78,0.00,CLR,CLR,0.00,WeatherDisplay:10.37,2013-03-10 08:26:00,
2013-03-10 04:31:00,30.0,24.6,30.18,North,0,0.0,0.0,80,0.00,CLR,CLR,0.00,WeatherDisplay:10.37,2013-03-10 08:31:00,
2013-03-10 04:36:00,30.4,25.5,30.18,North,0,0.0,0.0,82,0.00,CLR,CLR,0.00,WeatherDisplay:10.37,2013-03-10 08:36:00,
2013-03-10 04:41:00,30.4,25.5,30.18,North,0,0.0,0.0,82,0.00,CLR,CLR,0.00,WeatherDisplay:10.37,2013-03-10 08:41:00,
2013-03-10 04:46:00,29.5,25.0,30.18,North,0,0.0,0.0,83,0.00,CLR,CLR,0.00,WeatherDisplay:10.37,2013-03-10 08:46:00,
2013-03-10 04:51:00,29.1,24.0,30.18,North,0,0.0,0.0,81,0.00,CLR,CLR,0.00,WeatherDisplay:10.37,2013-03-10 08:51:00,
2013-03-10 04:56:00,28.9,23.5,30.18,North,0,0.0,0.0,80,0.00,CLR,CLR,0.00,WeatherDisplay:10.37,2013-03-10 08:56:00,
2013-03-10 05:01:00,28.9,23.5,30.18,North,0,0.0,0.0,80,0.00,CLR,CLR,0.00,WeatherDisplay:10.37,2013-03-10 09:01:00,
2013-03-10 05:06:00,29.1,23.7,30.18,North,0,0.0,0.0,80,0.00,CLR,CLR,0.00,WeatherDisplay:10.37,2013-03-10 09:06:00,
2013-03-10 05:11:00,28.8,23.1,30.18,North,0,0.0,0.0,79,0.00,CLR,CLR,0.00,WeatherDisplay:10.37,2013-03-10 09:11:00,
2013-03-10 05:17:00,28.9,23.5,30.18,North,0,0.0,0.0,80,0.00,CLR,CLR,0.00,WeatherDisplay:10.37,2013-03-10 09:17:00,
2013-03-10 05:22:00,28.8,23.4,30.18,North,0,0.0,0.0,80,0.00,CLR,CLR,0.00,WeatherDisplay:10.37,2013-03-10 09:22:00,
2013-03-10 05:27:00,27.9,22.5,30.18,North,0,0.0,0.0,80,0.00,CLR,CLR,0.00,WeatherDisplay:10.37,2013-03-10 09:27:00,
2013-03-10 05:32:00,27.9,22.2,30.18,North,0,0.0,0.0,79,0.00,CLR,CLR,0.00,WeatherDisplay:10.37,2013-03-10 09:32:00,
2013-03-10 05:37:00,27.9,22.2,30.18,North,0,0.0,0.0,79,0.00,CLR,CLR,0.00,WeatherDisplay:10.37,2013-03-10 09:37:00,
2013-03-10 05:42:00,27.9,22.2,30.18,North,0,0.0,0.0,79,0.00,CLR,CLR,0.00,WeatherDisplay:10.37,2013-03-10 09:42:00,
2013-03-10 05:47:00,28.0,22.7,30.18,North,0,0.0,0.0,80,0.00,CLR,CLR,0.00,WeatherDisplay:10.37,2013-03-10 09:47:00,
2013-03-10 05:53:00,27.9,22.5,30.18,North,0,0.0,0.0,80,0.00,CLR,CLR,0.00,WeatherDisplay:10.37,2013-03-10 09:53:00,
2013-03-10 05:58:00,28.2,22.8,30.18,North,0,0.0,0.0,80,0.00,CLR,CLR,0.00,WeatherDisplay:10.37,2013-03-10 09:58:00,
2013-03-10 06:03:00,28.6,23.2,30.18,North,0,0.0,0.0,80,0.00,CLR,CLR,0.00,WeatherDisplay:10.37,2013-03-10 10:03:00,
2013-03-10 06:08:00,28.2,23.1,30.18,North,0,0.0,0.0,81,0.00,CLR,CLR,0.00,WeatherDisplay:10.37,2013-03-10 10:08:00,
2013-03-10 06:13:00,27.9,22.8,30.18,North,0,0.0,0.0,81,0.00,CLR,CLR,0.00,WeatherDisplay:10.37,2013-03-10 10:13:00,
2013-03-10 06:18:00,27.3,22.0,30.18,North,0,0.0,0.0,80,0.00,CLR,CLR,0.00,WeatherDisplay:10.37,2013-03-10 10:18:00,
2013-03-10 06:23:00,27.5,22.1,30.18,North,0,0.0,0.0,80,0.00,CLR,CLR,0.00,WeatherDisplay:10.37,2013-03-10 10:23:00,
2013-03-10 06:29:00,27.9,22.5,30.18,North,0,0.0,0.0,80,0.00,CLR,CLR,0.00,WeatherDisplay:10.37,2013-03-10 10:29:00,
2013-03-10 06:34:00,28.2,22.8,30.18,North,0,0.0,0.0,80,0.00,CLR,CLR,0.00,WeatherDisplay:10.37,2013-03-10 10:34:00,
2013-03-10 06:39:00,28.2,23.1,30.18,North,0,0.0,0.0,81,0.00,CLR,CLR,0.00,WeatherDisplay:10.37,2013-03-10 10:39:00,
2013-03-10 06:45:00,28.0,23.0,30.18,North,0,0.0,0.0,81,0.00,CLR,CLR,0.00,WeatherDisplay:10.37,2013-03-10 10:45:00,
2013-03-10 06:50:00,28.0,22.7,30.18,North,0,0.0,0.0,80,0.00,CLR,CLR,0.00,WeatherDisplay:10.37,2013-03-10 10:50:00,
2013-03-10 06:55:00,27.5,22.1,30.18,North,0,0.0,0.0,80,0.00,CLR,CLR,0.00,WeatherDisplay:10.37,2013-03-10 10:55:00,
2013-03-10 07:00:00,27.7,22.3,30.18,North,0,0.0,0.0,80,0.00,CLR,CLR,0.00,WeatherDisplay:10.37,2013-03-10 11:00:00,
2013-03-10 07:05:00,27.5,22.1,30.18,North,0,0.0,0.0,80,0.00,CLR,CLR,0.00,WeatherDisplay:10.37,2013-03-10 11:05:00,
2013-03-10 07:11:00,27.7,22.3,30.18,North,0,0.0,0.0,80,0.00,CLR,CLR,0.00,WeatherDisplay:10.37,2013-03-10 11:11:00,
2013-03-10 07:16:00,27.9,22.5,30.18,North,0,0.0,0.0,80,0.00,CLR,CLR,0.00,WeatherDisplay:10.37,2013-03-10 11:16:00,
2013-03-10 07:21:00,27.7,22.3,30.21,North,0,0.0,0.0,80,0.00,CLR,CLR,0.00,WeatherDisplay:10.37,2013-03-10 11:21:00,
2013-03-10 07:26:00,28.0,22.7,30.21,North,0,0.0,0.0,80,0.00,CLR,CLR,0.00,WeatherDisplay:10.37,2013-03-10 11:26:00,
2013-03-10 07:31:00,28.8,23.4,30.21,North,0,0.0,0.0,80,0.00,CLR,CLR,0.00,WeatherDisplay:10.37,2013-03-10 11:31:00,
2013-03-10 07:36:00,28.4,23.3,30.21,North,0,0.0,0.0,81,0.00,CLR,CLR,0.00,WeatherDisplay:10.37,2013-03-10 11:36:00,
2013-03-10 07:42:00,28.2,23.1,30.21,North,0,0.0,0.0,81,0.00,CLR,CLR,0.00,WeatherDisplay:10.37,2013-03-10 11:42:00,
2013-03-10 07:47:00,28.4,23.6,30.21,North,0,0.0,0.0,82,0.00,CLR,CLR,0.00,WeatherDisplay:10.37,2013-03-10 11:47:00,
2013-03-10 07:52:00,28.4,24.2,30.21,North,0,0.0,0.0,84,0.00,CLR,CLR,0.00,WeatherDisplay:10.37,2013-03-10 11:52:00,
2013-03-10 07:57:00,28.6,24.6,30.21,North,0,0.0,0.0,85,0.00,CLR,CLR,0.00,WeatherDisplay:10.37,2013-03-10 11:57:00,
2013-03-10 08:02:00,29.1,24.9,30.18,North,0,0.0,0.0,84,0.00,CLR,CLR,0.00,WeatherDisplay:10.37,2013-03-10 12:02:00,
2013-03-10 08:07:00,29.5,25.2,30.18,North,0,0.0,0.0,84,0.00,CLR,CLR,0.00,WeatherDisplay:10.37,2013-03-10 12:07:00,
2013-03-10 08:13:00,30.2,25.7,30.18,North,0,0.0,0.0,83,0.00,CLR,CLR,0.00,WeatherDisplay:10.37,2013-03-10 12:13:00,
2013-03-10 08:18:00,30.6,26.0,30.21,North,0,0.0,0.0,83,0.00,CLR,CLR,0.00,WeatherDisplay:10.37,2013-03-10 12:18:00,
2013-03-10 08:23:00,32.2,27.6,30.21,North,0,0.0,0.0,83,0.00,CLR,CLR,0.00,WeatherDisplay:10.37,2013-03-10 12:23:00,
2013-03-10 08:28:00,33.8,29.5,30.21,North,0,0.0,0.0,84,0.00,CLR,CLR,0.00,WeatherDisplay:10.37,2013-03-10 12:28:00,
2013-03-10 08:34:00,35.1,31.0,30.21,North,0,0.0,0.0,85,0.00,CLR,CLR,0.00,WeatherDisplay:10.37,2013-03-10 12:34:00,
2013-03-10 08:39:00,36.9,33.1,30.21,North,0,0.0,0.0,86,0.00,CLR,CLR,0.00,WeatherDisplay:10.37,2013-03-10 12:39:00,
2013-03-10 08:44:00,38.7,35.4,30.21,North,0,0.0,0.0,88,0.00,CLR,CLR,0.00,WeatherDisplay:10.37,2013-03-10 12:44:00,
2013-03-10 08:49:00,39.7,36.2,30.21,North,0,0.0,0.0,87,0.00,CLR,CLR,0.00,WeatherDisplay:10.37,2013-03-10 12:49:00,
2013-03-10 08:54:00,40.6,36.5,30.21,North,0,0.0,0.0,85,0.00,CLR,CLR,0.00,WeatherDisplay:10.37,2013-03-10 12:54:00,
2013-03-10 08:59:00,41.7,36.9,30.21,North,0,0.0,0.0,83,0.00,CLR,CLR,0.00,WeatherDisplay:10.37,2013-03-10 12:59:00,
2013-03-10 09:04:00,43.3,37.9,30.21,North,0,0.0,0.0,81,0.00,CLR,CLR,0.00,WeatherDisplay:10.37,2013-03-10 13:04:00,
2013-03-10 09:10:00,44.6,38.5,30.21,North,0,0.0,0.0,79,0.00,CLR,CLR,0.00,WeatherDisplay:10.37,2013-03-10 13:10:00,
2013-03-10 09:15:00,45.5,38.4,30.21,North,0,0.0,0.0,76,0.00,CLR,CLR,0.00,WeatherDisplay:10.37,2013-03-10 13:15:00,
2013-03-10 09:20:00,46.2,38.0,30.21,North,0,0.0,0.0,73,0.00,CLR,CLR,0.00,WeatherDisplay:10.37,2013-03-10 13:20:00,
2013-03-10 09:25:00,46.8,37.9,30.21,North,0,0.0,0.0,71,0.00,CLR,CLR,0.00,WeatherDisplay:10.37,2013-03-10 13:25:00,
2013-03-10 09:30:00,47.3,37.6,30.21,North,0,0.0,0.0,69,0.00,CLR,CLR,0.00,WeatherDisplay:10.37,2013-03-10 13:30:00,
2013-03-10 09:35:00,48.0,38.7,30.21,North,0,0.0,0.0,70,0.00,CLR,CLR,0.00,WeatherDisplay:10.37,2013-03-10 13:35:00,
2013-03-10 09:40:00,48.7,38.6,30.21,North,0,0.0,0.0,68,0.00,CLR,CLR,0.00,WeatherDisplay:10.37,2013-03-10 13:40:00,
2013-03-10 09:46:00,49.3,39.2,30.21,North,0,0.0,0.0,68,0.00,CLR,CLR,0.00,WeatherDisplay:10.37,2013-03-10 13:46:00,
2013-03-10 09:51:00,49.6,38.3,30.21,North,0,0.0,0.0,65,0.00,CLR,CLR,0.00,WeatherDisplay:10.37,2013-03-10 13:51:00,
2013-03-10 09:56:00,50.4,39.0,30.21,North,0,0.0,0.0,65,0.00,CLR,CLR,0.00,WeatherDisplay:10.37,2013-03-10 13:56:00,
2013-03-10 10:01:00,50.9,38.7,30.21,North,0,0.0,0.0,63,0.00,CLR,CLR,0.00,WeatherDisplay:10.37,2013-03-10 14:01:00,
2013-03-10 10:06:00,51.4,38.4,30.21,North,0,0.0,0.0,61,0.00,CLR,CLR,0.00,WeatherDisplay:10.37,2013-03-10 14:06:00,
2013-03-10 10:11:00,52.0,39.8,30.21,North,0,0.0,0.0,63,0.00,CLR,CLR,0.00,WeatherDisplay:10.37,2013-03-10 14:11:00,
2013-03-10 10:17:00,52.3,38.9,30.21,North,0,0.0,0.0,60,0.00,CLR,CLR,0.00,WeatherDisplay:10.37,2013-03-10 14:17:00,
2013-03-10 10:22:00,53.4,39.4,30.21,North,0,0.0,0.0,59,0.00,CLR,CLR,0.00,WeatherDisplay:10.37,2013-03-10 14:22:00,
2013-03-10 10:27:00,53.8,38.4,30.21,North,0,0.0,0.0,56,0.00,CLR,CLR,0.00,WeatherDisplay:10.37,2013-03-10 14:27:00,
2013-03-10 10:32:00,54.7,39.3,30.21,North,0,0.0,0.0,56,0.00,CLR,CLR,0.00,WeatherDisplay:10.37,2013-03-10 14:32:00,
2013-03-10 10:37:00,55.0,38.7,30.21,North,0,0.0,0.0,54,0.00,CLR,CLR,0.00,WeatherDisplay:10.37,2013-03-10 14:37:00,
2013-03-10 10:43:00,55.0,38.2,30.21,North,0,0.0,0.0,53,0.00,CLR,CLR,0.00,WeatherDisplay:10.37,2013-03-10 14:43:00,
2013-03-10 10:48:00,56.3,39.4,30.21,North,0,0.0,0.0,53,0.00,CLR,CLR,0.00,WeatherDisplay:10.37,2013-03-10 14:48:00,
2013-03-10 10:53:00,56.3,38.9,30.21,North,0,0.0,0.0,52,0.00,CLR,CLR,0.00,WeatherDisplay:10.37,2013-03-10 14:53:00,
2013-03-10 10:58:00,56.3,37.9,30.21,North,0,0.0,0.0,50,0.00,CLR,CLR,0.00,WeatherDisplay:10.37,2013-03-10 14:58:00,
2013-03-10 11:03:00,56.7,38.7,30.21,North,0,0.0,0.0,51,0.00,CLR,CLR,0.00,WeatherDisplay:10.37,2013-03-10 15:03:00,
2013-03-10 11:08:00,56.5,38.1,30.21,North,0,0.0,0.0,50,0.00,CLR,CLR,0.00,WeatherDisplay:10.37,2013-03-10 15:08:00,
2013-03-10 11:13:00,57.0,38.5,30.21,North,0,0.0,0.0,50,0.00,CLR,CLR,0.00,WeatherDisplay:10.37,2013-03-10 15:13:00,
2013-03-10 11:18:00,57.0,38.0,30.21,North,0,0.0,0.0,49,0.00,CLR,CLR,0.00,WeatherDisplay:10.37,2013-03-10 15:18:00,
2013-03-10 11:24:00,56.8,37.9,30.21,North,0,0.0,0.0,49,0.00,CLR,CLR,0.00,WeatherDisplay:10.37,2013-03-10 15:24:00,
2013-03-10 11:29:00,57.2,37.7,30.21,North,0,0.0,0.0,48,0.00,CLR,CLR,0.00,WeatherDisplay:10.37,2013-03-10 15:29:00,
2013-03-10 11:34:00,57.0,37.5,30.21,North,0,0.0,0.0,48,0.00,CLR,CLR,0.00,WeatherDisplay:10.37,2013-03-10 15:34:00,
2013-03-10 11:39:00,57.2,37.1,30.21,North,0,0.0,0.0,47,0.00,CLR,CLR,0.00,WeatherDisplay:10.37,2013-03-10 15:39:00,
2013-03-10 11:44:00,58.1,38.0,30.21,North,0,0.0,0.0,47,0.00,CLR,CLR,0.00,WeatherDisplay:10.37,2013-03-10 15:44:00,
2013-03-10 11:49:00,57.9,37.2,30.24,North,0,0.0,0.0,46,0.00,CLR,CLR,0.00,WeatherDisplay:10.37,2013-03-10 15:49:00,
2013-03-10 11:55:00,58.3,38.1,30.24,North,0,0.0,0.0,47,0.00,CLR,CLR,0.00,WeatherDisplay:10.37,2013-03-10 15:55:00,
2013-03-10 12:00:00,57.9,36.7,30.24,North,0,0.0,0.0,45,0.00,CLR,CLR,0.00,WeatherDisplay:10.37,2013-03-10 16:00:00,
2013-03-10 12:05:00,58.1,35.7,30.21,North,0,0.0,0.0,43,0.00,CLR,CLR,0.00,WeatherDisplay:10.37,2013-03-10 16:05:00,
2013-03-10 12:10:00,57.9,36.1,30.21,North,0,0.0,0.0,44,0.00,CLR,CLR,0.00,WeatherDisplay:10.37,2013-03-10 16:10:00,
2013-03-10 12:15:00,58.1,36.9,30.21,North,0,0.0,0.0,45,0.00,CLR,CLR,0.00,WeatherDisplay:10.37,2013-03-10 16:15:00,
2013-03-10 12:20:00,58.3,36.4,30.21,North,0,0.0,0.0,44,0.00,CLR,CLR,0.00,WeatherDisplay:10.37,2013-03-10 16:20:00,
2013-03-10 12:25:00,59.2,36.7,30.21,North,0,0.0,0.0,43,0.00,CLR,CLR,0.00,WeatherDisplay:10.37,2013-03-10 16:25:00,
2013-03-10 12:30:00,58.5,36.6,30.21,North,0,0.0,0.0,44,0.00,CLR,CLR,0.00,WeatherDisplay:10.37,2013-03-10 16:30:00,
2013-03-10 12:35:00,58.6,35.6,30.24,North,0,0.0,0.0,42,0.00,CLR,CLR,0.00,WeatherDisplay:10.37,2013-03-10 16:35:00,
2013-03-10 12:40:00,59.0,37.1,30.24,North,0,0.0,0.0,44,0.00,CLR,CLR,0.00,WeatherDisplay:10.37,2013-03-10 16:40:00,
2013-03-10 12:45:00,59.4,36.2,30.24,North,0,0.0,0.0,42,0.00,CLR,CLR,0.00,WeatherDisplay:10.37,2013-03-10 16:45:00,
2013-03-10 12:51:00,59.2,36.1,30.24,North,0,0.0,0.0,42,0.00,CLR,CLR,0.00,WeatherDisplay:10.37,2013-03-10 16:51:00,
2013-03-10 12:56:00,59.5,37.0,30.24,North,0,0.0,0.0,43,0.00,CLR,CLR,0.00,WeatherDisplay:10.37,2013-03-10 16:56:00,
2013-03-10 13:01:00,60.1,36.9,30.24,North,0,0.0,0.0,42,0.00,CLR,CLR,0.00,WeatherDisplay:10.37,2013-03-10 17:01:00,
2013-03-10 13:06:00,60.3,36.4,30.21,North,0,0.0,0.0,41,0.00,CLR,CLR,0.00,WeatherDisplay:10.37,2013-03-10 17:06:00,
2013-03-10 13:12:00,60.6,37.4,30.21,North,0,0.0,0.0,42,0.00,CLR,CLR,0.00,WeatherDisplay:10.37,2013-03-10 17:12:00,
2013-03-10 13:17:00,60.6,35.5,30.21,North,0,0.0,0.0,39,0.00,CLR,CLR,0.00,WeatherDisplay:10.37,2013-03-10 17:17:00,
2013-03-10 13:22:00,60.8,35.7,30.21,North,0,0.0,0.0,39,0.00,CLR,CLR,0.00,WeatherDisplay:10.37,2013-03-10 17:22:00,
2013-03-10 13:27:00,61.3,36.2,30.21,North,0,0.0,0.0,39,0.00,CLR,CLR,0.00,WeatherDisplay:10.37,2013-03-10 17:27:00,
2013-03-10 13:32:00,61.3,36.8,30.21,North,0,0.0,0.0,40,0.00,CLR,CLR,0.00,WeatherDisplay:10.37,2013-03-10 17:32:00,
2013-03-10 13:38:00,61.3,36.8,30.21,North,0,0.0,0.0,40,0.00,CLR,CLR,0.00,WeatherDisplay:10.37,2013-03-10 17:38:00,
2013-03-10 13:43:00,60.8,35.0,30.21,North,0,0.0,0.0,38,0.00,CLR,CLR,0.00,WeatherDisplay:10.37,2013-03-10 17:43:00,
2013-03-10 13:48:00,60.8,35.0,30.21,North,0,0.0,0.0,38,0.00,CLR,CLR,0.00,WeatherDisplay:10.37,2013-03-10 17:48:00,
2013-03-10 13:53:00,62.1,36.1,30.21,North,0,0.0,0.0,38,0.00,CLR,CLR,0.00,WeatherDisplay:10.37,2013-03-10 17:53:00,
2013-03-10 13:58:00,62.1,36.8,30.21,North,0,0.0,0.0,39,0.00,CLR,CLR,0.00,WeatherDisplay:10.37,2013-03-10 17:58:00,
2013-03-10 14:03:00,61.9,36.6,30.21,North,0,0.0,0.0,39,0.00,CLR,CLR,0.00,WeatherDisplay:10.37,2013-03-10 18:03:00,
2013-03-10 14:08:00,62.2,38.2,30.21,North,0,0.0,0.0,41,0.00,CLR,CLR,0.00,WeatherDisplay:10.37,2013-03-10 18:08:00,
2013-03-10 14:13:00,62.2,37.0,30.21,North,0,0.0,0.0,39,0.00,CLR,CLR,0.00,WeatherDisplay:10.37,2013-03-10 18:13:00,
2013-03-10 14:19:00,62.1,37.4,30.21,North,0,0.0,0.0,40,0.00,CLR,CLR,0.00,WeatherDisplay:10.37,2013-03-10 18:19:00,
2013-03-10 14:24:00,62.8,38.7,30.21,North,0,0.0,0.0,41,0.00,CLR,CLR,0.00,WeatherDisplay:10.37,2013-03-10 18:24:00,
2013-03-10 14:29:00,62.4,37.8,30.21,North,0,0.0,0.0,40,0.00,CLR,CLR,0.00,WeatherDisplay:10.37,2013-03-10 18:29:00,
2013-03-10 14:34:00,62.8,38.7,30.21,North,0,0.0,0.0,41,0.00,CLR,CLR,0.00,WeatherDisplay:10.37,2013-03-10 18:34:00,
2013-03-10 14:40:00,62.8,39.9,30.21,North,0,0.0,0.0,43,0.00,CLR,CLR,0.00,WeatherDisplay:10.37,2013-03-10 18:40:00,
2013-03-10 14:45:00,62.6,39.2,30.21,North,0,0.0,0.0,42,0.00,CLR,CLR,0.00,WeatherDisplay:10.37,2013-03-10 18:45:00,
2013-03-10 14:50:00,62.8,39.3,30.18,North,0,0.0,0.0,42,0.00,CLR,CLR,0.00,WeatherDisplay:10.37,2013-03-10 18:50:00,
2013-03-10 14:55:00,62.8,39.9,30.18,North,0,0.0,0.0,43,0.00,CLR,CLR,0.00,WeatherDisplay:10.37,2013-03-10 18:55:00,
2013-03-10 15:00:00,63.1,40.3,30.18,North,0,0.0,0.0,43,0.00,CLR,CLR,0.00,WeatherDisplay:10.37,2013-03-10 19:00:00,
2013-03-10 15:05:00,62.6,39.2,30.18,North,0,0.0,0.0,42,0.00,CLR,CLR,0.00,WeatherDisplay:10.37,2013-03-10 19:05:00,
2013-03-10 15:11:00,63.5,40.6,30.18,North,0,0.0,0.0,43,0.00,CLR,CLR,0.00,WeatherDisplay:10.37,2013-03-10 19:11:00,
2013-03-10 15:16:00,62.2,40.0,30.18,North,0,0.0,0.0,44,0.00,CLR,CLR,0.00,WeatherDisplay:10.37,2013-03-10 19:16:00,
2013-03-10 15:21:00,63.5,41.2,30.18,North,0,0.0,0.0,44,0.00,CLR,CLR,0.00,WeatherDisplay:10.37,2013-03-10 19:21:00,
2013-03-10 15:27:00,62.6,40.4,30.18,North,0,0.0,0.0,44,0.00,CLR,CLR,0.00,WeatherDisplay:10.37,2013-03-10 19:27:00,
2013-03-10 15:32:00,63.7,41.3,30.18,North,0,0.0,0.0,44,0.00,CLR,CLR,0.00,WeatherDisplay:10.37,2013-03-10 19:32:00,
2013-03-10 15:37:00,63.0,40.7,30.18,North,0,0.0,0.0,44,0.00,CLR,CLR,0.00,WeatherDisplay:10.37,2013-03-10 19:37:00,
2013-03-10 15:42:00,62.4,40.8,30.18,North,0,0.0,0.0,45,0.00,CLR,CLR,0.00,WeatherDisplay:10.37,2013-03-10 19:42:00,
2013-03-10 15:47:00,63.0,40.1,30.18,North,0,0.0,0.0,43,0.00,CLR,CLR,0.00,WeatherDisplay:10.37,2013-03-10 19:47:00,
2013-03-10 15:52:00,62.6,40.4,30.18,North,0,0.0,0.0,44,0.00,CLR,CLR,0.00,WeatherDisplay:10.37,2013-03-10 19:52:00,
2013-03-10 15:57:00,63.5,39.4,30.18,North,0,0.0,0.0,41,0.00,CLR,CLR,0.00,WeatherDisplay:10.37,2013-03-10 19:57:00,
2013-03-10 16:03:00,63.7,40.8,30.18,North,0,0.0,0.0,43,0.00,CLR,CLR,0.00,WeatherDisplay:10.37,2013-03-10 20:03:00,
2013-03-10 16:08:00,64.8,39.9,30.18,North,0,0.0,0.0,40,0.00,CLR,CLR,0.00,WeatherDisplay:10.37,2013-03-10 20:08:00,
2013-03-10 16:13:00,64.2,40.6,30.18,North,0,0.0,0.0,42,0.00,CLR,CLR,0.00,WeatherDisplay:10.37,2013-03-10 20:13:00,
2013-03-10 16:18:00,63.3,40.4,30.21,North,0,0.0,0.0,43,0.00,CLR,CLR,0.00,WeatherDisplay:10.37,2013-03-10 20:18:00,
2013-03-10 16:23:00,63.0,38.9,30.21,North,0,0.0,0.0,41,0.00,CLR,CLR,0.00,WeatherDisplay:10.37,2013-03-10 20:23:00,
2013-03-10 16:28:00,64.6,40.3,30.21,North,0,0.0,0.0,41,0.00,CLR,CLR,0.00,WeatherDisplay:10.37,2013-03-10 20:28:00,
2013-03-10 16:33:00,62.4,37.8,30.18,North,0,0.0,0.0,40,0.00,CLR,CLR,0.00,WeatherDisplay:10.37,2013-03-10 20:33:00,
2013-03-10 16:39:00,63.7,38.2,30.18,North,0,0.0,0.0,39,0.00,CLR,CLR,0.00,WeatherDisplay:10.37,2013-03-10 20:39:00,
2013-03-10 16:44:00,63.5,38.1,30.18,North,0,0.0,0.0,39,0.00,CLR,CLR,0.00,WeatherDisplay:10.37,2013-03-10 20:44:00,
2013-03-10 16:49:00,63.0,37.6,30.18,North,0,0.0,0.0,39,0.00,CLR,CLR,0.00,WeatherDisplay:10.37,2013-03-10 20:49:00,
2013-03-10 16:54:00,62.2,37.0,30.18,North,0,0.0,0.0,39,0.00,CLR,CLR,0.00,WeatherDisplay:10.37,2013-03-10 20:54:00,
2013-03-10 16:59:00,61.5,36.3,30.18,North,0,0.0,0.0,39,0.00,CLR,CLR,0.00,WeatherDisplay:10.37,2013-03-10 20:59:00,
2013-03-10 17:04:00,61.7,35.8,30.15,North,0,0.0,0.0,38,0.00,CLR,CLR,0.00,WeatherDisplay:10.37,2013-03-10 21:04:00,
2013-03-10 17:09:00,61.9,36.0,30.15,North,0,0.0,0.0,38,0.00,CLR,CLR,0.00,WeatherDisplay:10.37,2013-03-10 21:09:00,
2013-03-10 17:15:00,60.8,35.0,30.15,North,0,0.0,0.0,38,0.00,CLR,CLR,0.00,WeatherDisplay:10.37,2013-03-10 21:15:00,
2013-03-10 17:20:00,59.7,33.4,30.18,North,0,0.0,0.0,37,0.00,CLR,CLR,0.00,WeatherDisplay:10.37,2013-03-10 21:20:00,
2013-03-10 17:25:00,59.4,33.7,30.18,North,0,0.0,0.0,38,0.00,CLR,CLR,0.00,WeatherDisplay:10.37,2013-03-10 21:25:00,
2013-03-10 17:30:00,58.6,34.4,30.18,North,0,0.0,0.0,40,0.00,CLR,CLR,0.00,WeatherDisplay:10.37,2013-03-10 21:30:00,
2013-03-10 17:36:00,58.1,33.9,30.18,North,0,0.0,0.0,40,0.00,CLR,CLR,0.00,WeatherDisplay:10.37,2013-03-10 21:36:00,
2013-03-10 17:41:00,57.7,34.2,30.18,North,0,0.0,0.0,41,0.00,CLR,CLR,0.00,WeatherDisplay:10.37,2013-03-10 21:41:00,
2013-03-10 17:46:00,57.9,34.9,30.18,North,0,0.0,0.0,42,0.00,CLR,CLR,0.00,WeatherDisplay:10.37,2013-03-10 21:46:00,
2013-03-10 17:51:00,59.5,37.0,30.18,North,0,0.0,0.0,43,0.00,CLR,CLR,0.00,WeatherDisplay:10.37,2013-03-10 21:51:00,
2013-03-10 17:57:00,60.1,38.1,30.18,North,0,0.0,0.0,44,0.00,CLR,CLR,0.00,WeatherDisplay:10.37,2013-03-10 21:57:00,
2013-03-10 18:02:00,60.1,39.2,30.18,North,0,0.0,0.0,46,0.00,CLR,CLR,0.00,WeatherDisplay:10.37,2013-03-10 22:02:00,
2013-03-10 18:07:00,59.2,39.5,30.18,North,0,0.0,0.0,48,0.00,CLR,CLR,0.00,WeatherDisplay:10.37,2013-03-10 22:07:00,
2013-03-10 18:12:00,58.8,40.7,30.18,North,0,0.0,0.0,51,0.00,CLR,CLR,0.00,WeatherDisplay:10.37,2013-03-10 22:12:00,
2013-03-10 18:17:00,58.8,41.2,30.18,North,0,0.0,0.0,52,0.00,CLR,CLR,0.00,WeatherDisplay:10.37,2013-03-10 22:17:00,
2013-03-10 18:22:00,57.2,42.1,30.18,North,0,0.0,0.0,57,0.00,CLR,CLR,0.00,WeatherDisplay:10.37,2013-03-10 22:22:00,
2013-03-10 18:27:00,57.2,42.1,30.18,North,0,0.0,0.0,57,0.00,CLR,CLR,0.00,WeatherDisplay:10.37,2013-03-10 22:27:00,
2013-03-10 18:33:00,56.3,42.6,30.18,North,0,0.0,0.0,60,0.00,CLR,CLR,0.00,WeatherDisplay:10.37,2013-03-10 22:33:00,
2013-03-10 18:38:00,55.8,42.9,30.18,North,0,0.0,0.0,62,0.00,CLR,CLR,0.00,WeatherDisplay:10.37,2013-03-10 22:38:00,
2013-03-10 18:43:00,55.0,43.1,30.18,North,0,0.0,0.0,64,0.00,CLR,CLR,0.00,WeatherDisplay:10.37,2013-03-10 22:43:00,
2013-03-10 18:48:00,54.7,43.1,30.18,North,0,0.0,0.0,65,0.00,CLR,CLR,0.00,WeatherDisplay:10.37,2013-03-10 22:48:00,
2013-03-10 18:53:00,54.3,42.8,30.18,North,0,0.0,0.0,65,0.00,CLR,CLR,0.00,WeatherDisplay:10.37,2013-03-10 22:53:00,
2013-03-10 18:58:00,53.6,43.3,30.18,North,0,0.0,0.0,68,0.00,CLR,CLR,0.00,WeatherDisplay:10.37,2013-03-10 22:58:00,
2013-03-10 19:03:00,53.1,43.5,30.18,North,0,0.0,0.0,70,0.00,CLR,CLR,0.00,WeatherDisplay:10.37,2013-03-10 23:03:00,
2013-03-10 19:09:00,52.0,42.1,30.18,North,0,0.0,0.0,69,0.00,CLR,CLR,0.00,WeatherDisplay:10.37,2013-03-10 23:09:00,
2013-03-10 19:14:00,51.4,42.7,30.18,North,0,0.0,0.0,72,0.00,CLR,CLR,0.00,WeatherDisplay:10.37,2013-03-10 23:14:00,
2013-03-10 19:19:00,50.9,42.2,30.21,North,0,0.0,0.0,72,0.00,CLR,CLR,0.00,WeatherDisplay:10.37,2013-03-10 23:19:00,
2013-03-10 19:24:00,50.5,41.8,30.21,North,0,0.0,0.0,72,0.00,CLR,CLR,0.00,WeatherDisplay:10.37,2013-03-10 23:24:00,
2013-03-10 19:29:00,50.2,41.1,30.21,North,0,0.0,0.0,71,0.00,CLR,CLR,0.00,WeatherDisplay:10.37,2013-03-10 23:29:00,
2013-03-10 19:35:00,50.0,41.3,30.18,North,0,0.0,0.0,72,0.00,CLR,CLR,0.00,WeatherDisplay:10.37,2013-03-10 23:35:00,
2013-03-10 19:40:00,49.1,41.2,30.18,North,0,0.0,0.0,74,0.00,CLR,CLR,0.00,WeatherDisplay:10.37,2013-03-10 23:40:00,
2013-03-10 19:45:00,48.9,41.3,30.18,North,0,0.0,0.0,75,0.00,CLR,CLR,0.00,WeatherDisplay:10.37,2013-03-10 23:45:00,
2013-03-10 19:50:00,48.6,41.0,30.21,North,0,0.0,0.0,75,0.00,CLR,CLR,0.00,WeatherDisplay:10.37,2013-03-10 23:50:00,
2013-03-10 19:55:00,48.2,40.6,30.21,North,0,0.0,0.0,75,0.00,CLR,CLR,0.00,WeatherDisplay:10.37,2013-03-10 23:55:00,
2013-03-10 20:00:00,47.8,41.0,30.21,North,0,0.0,0.0,77,0.00,CLR,CLR,0.00,WeatherDisplay:10.37,2013-03-11 00:00:00,
2013-03-10 20:06:00,47.8,40.6,30.21,North,0,0.0,0.0,76,0.00,CLR,CLR,0.00,WeatherDisplay:10.37,2013-03-11 00:06:00,
2013-03-10 20:11:00,47.3,40.5,30.21,North,0,0.0,0.0,77,0.00,CLR,CLR,0.00,WeatherDisplay:10.37,2013-03-11 00:11:00,
2013-03-10 20:16:00,46.6,40.7,30.21,North,0,0.0,0.0,80,0.00,CLR,CLR,0.00,WeatherDisplay:10.37,2013-03-11 00:16:00,
2013-03-10 20:21:00,46.4,40.6,30.18,North,0,0.0,0.0,80,0.00,CLR,CLR,0.00,WeatherDisplay:10.37,2013-03-11 00:21:00,
2013-03-10 20:27:00,46.4,40.2,30.18,North,0,0.0,0.0,79,0.00,CLR,CLR,0.00,WeatherDisplay:10.37,2013-03-11 00:27:00,
2013-03-10 20:32:00,46.4,40.6,30.18,North,0,0.0,0.0,80,0.00,CLR,CLR,0.00,WeatherDisplay:10.37,2013-03-11 00:32:00,
2013-03-10 20:37:00,46.4,40.9,30.21,North,0,0.0,0.0,81,0.00,CLR,CLR,0.00,WeatherDisplay:10.37,2013-03-11 00:37:00,
2013-03-10 20:42:00,46.2,41.0,30.21,North,0,0.0,0.0,82,0.00,CLR,CLR,0.00,WeatherDisplay:10.37,2013-03-11 00:42:00,
2013-03-10 20:47:00,45.9,40.7,30.21,North,0,0.0,0.0,82,0.00,CLR,CLR,0.00,WeatherDisplay:10.37,2013-03-11 00:47:00,
2013-03-10 20:52:00,45.5,40.3,30.21,North,0,0.0,0.0,82,0.00,CLR,CLR,0.00,WeatherDisplay:10.37,2013-03-11 00:52:00,
2013-03-10 20:57:00,45.3,40.1,30.21,North,0,0.0,0.0,82,0.00,CLR,CLR,0.00,WeatherDisplay:10.37,2013-03-11 00:57:00,
2013-03-10 21:02:00,45.3,39.8,30.21,North,0,0.0,0.0,81,0.00,CLR,CLR,0.00,WeatherDisplay:10.37,2013-03-11 01:02:00,
2013-03-10 21:07:00,45.0,39.8,30.21,North,0,0.0,0.0,82,0.00,CLR,CLR,0.00,WeatherDisplay:10.37,2013-03-11 01:07:00,
2013-03-10 21:12:00,44.6,39.1,30.21,North,0,0.0,0.0,81,0.00,CLR,CLR,0.00,WeatherDisplay:10.37,2013-03-11 01:12:00,
2013-03-10 21:17:00,43.9,39.1,30.21,North,0,0.0,0.0,83,0.00,CLR,CLR,0.00,WeatherDisplay:10.37,2013-03-11 01:17:00,
2013-03-10 21:23:00,43.0,37.5,30.21,North,0,0.0,0.0,81,0.00,CLR,CLR,0.00,WeatherDisplay:10.37,2013-03-11 01:23:00,
2013-03-10 21:28:00,42.6,36.9,30.21,North,0,0.0,0.0,80,0.00,CLR,CLR,0.00,WeatherDisplay:10.37,2013-03-11 01:28:00,
2013-03-10 21:33:00,42.8,37.4,30.21,North,0,0.0,0.0,81,0.00,CLR,CLR,0.00,WeatherDisplay:10.37,2013-03-11 01:33:00,
2013-03-10 21:38:00,43.3,38.2,30.21,North,0,0.0,0.0,82,0.00,CLR,CLR,0.00,WeatherDisplay:10.37,2013-03-11 01:38:00,
2013-03-10 21:43:00,43.0,37.9,30.21,North,0,0.0,0.0,82,0.00,CLR,CLR,0.00,WeatherDisplay:10.37,2013-03-11 01:43:00,
2013-03-10 21:48:00,43.0,38.5,30.21,North,0,0.0,0.0,84,0.00,CLR,CLR,0.00,WeatherDisplay:10.37,2013-03-11 01:48:00,
2013-03-10 21:53:00,43.2,39.3,30.21,North,0,0.0,0.0,86,0.00,CLR,CLR,0.00,WeatherDisplay:10.37,2013-03-11 01:53:00,
2013-03-10 21:58:00,42.6,38.7,30.21,North,0,0.0,0.0,86,0.00,CLR,CLR,0.00,WeatherDisplay:10.37,2013-03-11 01:58:00,
2013-03-10 22:03:00,42.3,38.1,30.18,North,0,0.0,0.0,85,0.00,CLR,CLR,0.00,WeatherDisplay:10.37,2013-03-11 02:03:00,
2013-03-10 22:09:00,41.0,36.8,30.18,North,0,0.0,0.0,85,0.00,CLR,CLR,0.00,WeatherDisplay:10.37,2013-03-11 02:09:00,
2013-03-10 22:14:00,41.5,37.4,30.18,North,0,0.0,0.0,85,0.00,CLR,CLR,0.00,WeatherDisplay:10.37,2013-03-11 02:14:00,
2013-03-10 22:19:00,42.3,38.4,30.18,North,0,0.0,0.0,86,0.00,CLR,CLR,0.00,WeatherDisplay:10.37,2013-03-11 02:19:00,
2013-03-10 22:24:00,41.9,38.3,30.18,North,0,0.0,0.0,87,0.00,CLR,CLR,0.00,WeatherDisplay:10.37,2013-03-11 02:24:00,
2013-03-10 22:29:00,42.3,39.5,30.18,North,0,0.0,0.0,90,0.00,CLR,CLR,0.00,WeatherDisplay:10.37,2013-03-11 02:29:00,
2013-03-10 22:34:00,41.9,39.5,30.18,North,0,0.0,0.0,91,0.00,CLR,CLR,0.00,WeatherDisplay:10.37,2013-03-11 02:34:00,
2013-03-10 22:39:00,41.4,38.9,30.18,North,0,0.0,0.0,91,0.00,CLR,CLR,0.00,WeatherDisplay:10.37,2013-03-11 02:39:00,
2013-03-10 22:44:00,41.7,39.3,30.18,North,0,0.0,0.0,91,0.00,CLR,CLR,0.00,WeatherDisplay:10.37,2013-03-11 02:44:00,
2013-03-10 22:49:00,41.7,39.6,30.21,North,0,0.0,0.0,92,0.00,CLR,CLR,0.00,WeatherDisplay:10.37,2013-03-11 02:49:00,
2013-03-10 22:54:00,41.9,39.2,30.21,North,0,0.0,0.0,90,0.00,CLR,CLR,0.00,WeatherDisplay:10.37,2013-03-11 02:54:00,
2013-03-10 23:00:00,42.3,39.2,30.21,North,0,0.0,0.0,89,0.00,CLR,CLR,0.00,WeatherDisplay:10.37,2013-03-11 03:00:00,
2013-03-10 23:05:00,40.5,37.2,30.18,North,0,0.0,0.0,88,0.00,CLR,CLR,0.00,WeatherDisplay:10.37,2013-03-11 03:05:00,
2013-03-10 23:10:00,41.5,38.0,30.18,North,0,0.0,0.0,87,0.00,CLR,CLR,0.00,WeatherDisplay:10.37,2013-03-11 03:10:00,
2013-03-10 23:15:00,41.4,37.8,30.18,North,0,0.0,0.0,87,0.00,CLR,CLR,0.00,WeatherDisplay:10.37,2013-03-11 03:15:00,
2013-03-10 23:21:00,41.0,37.4,30.21,North,0,0.0,0.0,87,0.00,CLR,CLR,0.00,WeatherDisplay:10.37,2013-03-11 03:21:00,
2013-03-10 23:26:00,41.0,37.1,30.21,North,0,0.0,0.0,86,0.00,CLR,CLR,0.00,WeatherDisplay:10.37,2013-03-11 03:26:00,
2013-03-10 23:31:00,40.8,37.0,30.21,North,0,0.0,0.0,86,0.00,CLR,CLR,0.00,WeatherDisplay:10.37,2013-03-11 03:31:00,
2013-03-10 23:36:00,41.0,37.1,30.18,North,0,0.0,0.0,86,0.00,CLR,CLR,0.00,WeatherDisplay:10.37,2013-03-11 03:36:00,
2013-03-10 23:41:00,40.3,36.7,30.18,North,0,0.0,0.0,87,0.00,CLR,CLR,0.00,WeatherDisplay:10.37,2013-03-11 03:41:00,
2013-03-10 23:46:00,40.1,36.5,30.18,North,0,0.0,0.0,87,0.00,CLR,CLR,0.00,WeatherDisplay:10.37,2013-03-11 03:46:00,
2013-03-10 23:52:00,40.1,36.5,30.18,North,0,0.0,0.0,87,0.00,CLR,CLR,0.00,WeatherDisplay:10.37,2013-03-11 03:52:00,
2013-03-10 23:57:00,39.7,35.9,30.18,North,0,0.0,0.0,86,0.00,CLR,CLR,0.00,WeatherDisplay:10.37,2013-03-11 03:57:00,